Tracking 29489 objects as of 9-Sep-2024
HD Live streaming from Space Station
objects crossing your sky now

FENGYUN 1C DEB

Track FENGYUN 1C DEB now!
10-day predictions


NORAD ID: 30358
Int'l Code: 1999-025ABV
Perigee: 782.9 km
Apogee: 912.2 km
Inclination: 98.6 °
Period: 101.7 minutes
Semi major axis: 7218 km
RCS: 0.037 m2 (small)
Launch date: May 10, 1999
Source: People's Republic of China (PRC)
Launch site: Taiyaun Space Center, China (TSC)

Note: This is SATELLITE DEBRIS
Your satellite tracking list
Your tracking list is empty




NASA's NSSDC Master Catalog

Two Line Element Set (TLE):
1 30358U 99025ABV 24253.52254279  .00009506  00000-0  46903-2 0  9990
2 30358  98.5795  92.2203 0089586  83.6910 330.9779 14.15551485904151
Source of the keplerian elements: AFSPC